Total_Precipitation_Accumulation
1.11 1.06 0.95 0.78 0.72 0.66 0.59 0.44 0.42 0.49 0.41 0.33 0.26 0.27 0.29 0.32 0.38 0.50 0.57 0.71 0.89 0.85 0.84 1.04 1.30 1.81 1.96
1.08 0.95 0.93 0.92 0.95 0.84 0.63 0.47 0.29 0.32 0.28 0.21 0.19 0.18 0.19 0.21 0.26 0.40 0.57 0.68 0.83 0.95 0.97 0.97 0.95 1.38 2.27
1.29 0.90 0.83 0.75 0.66 0.46 0.32 0.27 0.21 0.30 0.29 0.26 0.23 0.20 0.18 0.20 0.26 0.34 0.50 0.77 0.97 0.91 1.01 1.09 1.21 1.17 1.85
1.32 0.97 0.78 0.69 0.67 0.50 0.40 0.30 0.23 0.17 0.21 0.26 0.28 0.28 0.26 0.26 0.28 0.31 0.35 0.49 0.92 1.07 1.13 1.01 1.29 1.15 1.35
1.26 1.00 0.70 0.48 0.44 0.39 0.44 0.39 0.32 0.20 0.16 0.19 0.20 0.20 0.21 0.31 0.35 0.34 0.36 0.45 0.69 1.13 1.34 1.53 1.41 1.46 1.51
1.21 0.81 0.55 0.50 0.43 0.49 0.61 0.56 0.41 0.14 0.19 0.22 0.22 0.21 0.20 0.26 0.41 0.35 0.37 0.45 0.51 0.76 0.97 1.04 1.24 1.32 1.30
0.71 0.62 0.61 0.56 0.82 0.89 0.66 0.56 0.42 0.24 0.32 0.31 0.22 0.23 0.22 0.27 0.38 0.34 0.40 0.47 0.54 0.64 0.78 0.84 0.96 1.08 0.98
0.47 0.55 0.66 0.67 0.62 0.66 0.56 0.52 0.37 0.28 0.33 0.46 0.23 0.21 0.14 0.19 0.37 0.28 0.32 0.45 0.57 0.64 0.74 0.87 0.94 1.02 0.88
0.53 0.49 0.43 0.39 0.37 0.59 0.67 0.65 0.49 0.24 0.25 0.36 0.25 0.20 0.16 0.21 0.38 0.47 0.46 0.48 0.47 0.44 0.46 0.66 0.85 0.94 0.94
0.26 0.23 0.22 0.24 0.30 0.39 0.69 1.16 0.63 0.50 0.16 0.56 0.34 0.29 0.63 0.23 0.37 0.47 0.47 0.52 0.49 0.47 0.47 0.60 0.86 0.74 0.76
0.18 0.16 0.16 0.17 0.19 0.22 0.37 1.05 1.30 0.82 0.21 1.09 1.06 0.33 0.73 0.40 0.43 0.54 0.51 0.62 0.71 0.81 0.90 0.83 1.08 1.08 1.02
0.22 0.21 0.16 0.14 0.13 0.16 0.23 0.37 0.63 0.99 0.49 0.75 1.51 0.64 1.02 0.78 0.58 0.60 0.61 0.74 1.02 1.23 1.32 0.98 1.13 1.31 1.20
0.21 0.17 0.16 0.19 0.21 0.23 0.28 0.33 0.39 0.47 0.57 0.63 1.06 1.03 1.25 1.12 0.77 0.59 0.81 0.85 0.94 1.03 1.11 1.27 1.24 1.08 1.04
0.32 0.24 0.26 0.31 0.36 0.44 0.64 0.53 0.65 0.52 0.58 0.71 0.89 1.09 1.12 0.81 0.94 0.88 0.78 1.06 0.98 0.95 0.92 1.16 1.36 1.08 0.77
0.56 0.60 0.55 0.55 0.57 0.64 0.91 1.06 1.11 0.79 0.70 0.66 0.60 0.60 0.72 0.78 0.89 0.71 0.75 0.85 1.10 1.09 0.92 1.15 1.23 1.15 0.85
0.49 0.52 0.64 0.66 0.73 0.75 0.99 1.19 1.14 0.92 0.90 0.78 0.68 0.68 0.64 0.58 0.70 0.91 0.89 0.93 1.14 0.96 0.82 0.90 1.05 1.26 0.98
0.78 0.81 0.81 0.72 0.77 0.82 0.92 0.98 0.93 0.78 0.64 0.51 0.62 0.88 0.98 0.55 0.44 0.78 1.33 1.13 0.91 0.80 0.64 0.63 0.85 1.03 0.89